Disclaimer

Please do not use the information listed here in-flight or in-navigation, as they are not provided to us by the airports but are provided by volunteers, so they might be outdated.

Search


Regions


Airport information page

Radio informations:
Tower (TWR) - 119.25 MHz

Airport informations:
Latitude: 61° 27' 42.07" N
Longitude: 021° 47' 59.94" E
Elevation: 44 feet - 13 meters
Operating hours: N/A
Operating agency: Civil government, landing fees and diplomatic clearance may be required
Timezone: UTC+2(+3DT) - Last Sunday in March to last Sunday in October
Fuel: Jet A1, without icing nhibitor.

100/130 MIL Spec, low lead, aviation gasoline (BLUE)

Runway information:
12/30 - 7713 x 197 feet< - >2351 x 60 meters
17/35 - 2628 x 98 feet< - >801 x 30 meters

Recent METARs:
EFPO 221950Z AUTO 15007KT 9999 FEW022/// BKN100/// M07/M08 Q1009
EFPO 222020Z AUTO 15008KT 6000 -SN FEW009/// BKN028/// BKN080/// M06/M08 Q1009
EFPO 222050Z AUTO 15007KT 9999 -SN FEW027/// SCT041/// M06/M07 Q1009

Airport on the map: